This demonstration page uses our WeatherBlox Daily Observations layout. Learn more.

Left ArrowRight Arrow

Hourly Observations for May 6, 2016

Temp ( °F °C ) Dew Point ( °F °C ) Humidity (%) Winds ( mph kmh ) Pressure ( in mb ) Visibility ( mi km ) Precip ( " mm )
12:54 am 00:54 Clear 58 14.4 43 6.1 58 58 SSE 3 6 30.01 1016 10 16 0.00 0.00
1:54 am 01:54 Clear 59 15 43 6.1 56 56 SE 3 6 30.01 1016 10 16 0.00 0.00
2:54 am 02:54 Clear 57 13.9 43 6.1 60 60 Calm 30.00 1016 10 16 0.00 0.00
3:54 am 03:54 Clear 56 13.3 43 6.1 62 62 S 3 6 30.00 1016 10 16 0.00 0.00
4:54 am 04:54 Clear 56 13.3 43 6.1 62 62 S 5 7 29.99 1016 10 16 0.00 0.00
5:54 am 05:54 Clear 55 12.8 43 6.1 64 64 Calm 30.00 1016 10 16 0.00 0.00
8:54 am 08:54 Sunny 69 20.6 45 7.2 42 42 SW 10 17 30.01 1016 10 16 0.00 0.00
9:54 am 09:54 Sunny 76 24.4 44 6.7 32 32 SW 14 22 30.00 1016 10 16 0.00 0.00
10:54 am 10:54 Sunny 80 26.7 42 5.6 26 26 SW 20 31 29.99 1016 10 16 0.00 0.00
11:54 am 11:54 Sunny 83 28.3 41 5 23 23 SW 16 26 29.98 1015 10 16 0.00 0.00
12:54 pm 12:54 Sunny 85 29.4 38 3.3 19 19 SSW 20 31 29.95 1014 10 16 0.00 0.00
1:54 pm 13:54 Sunny 86 30 39 3.9 19 19 S 17 28 29.93 1014 10 16 0.00 0.00
2:54 pm 14:54 Sunny 88 31.1 40 4.4 18 18 SSW 20 31 29.91 1013 10 16 0.00 0.00
3:54 pm 15:54 Sunny 88 31.1 41 5 19 19 SSW 17 28 29.88 1012 10 16 0.00 0.00
4:54 pm 16:54 Sunny 88 31.1 41 5 19 19 SSW 20 31 29.86 1011 10 16 0.00 0.00
5:54 pm 17:54 Sunny 87 30.6 40 4.4 19 19 SSW 15 24 29.85 1011 10 16 0.00 0.00
6:54 pm 18:54 Sunny 82 27.8 43 6.1 25 25 S 14 22 29.85 1011 10 16 0.00 0.00
7:54 pm 19:54 Sunny 78 25.6 46 7.8 32 32 SSW 8 13 29.84 1011 10 16 0.00 0.00
8:54 pm 20:54 Clear 73 22.8 46 7.8 38 38 S 8 13 29.84 1011 10 16 0.00 0.00
9:54 pm 21:54 Clear 69 20.6 47 8.3 45 45 S 6 9 29.85 1011 10 16 0.00 0.00
10:54 pm 22:54 Clear 67 19.4 48 8.9 51 51 SSW 7 11 29.85 1011 10 16 0.00 0.00
11:54 pm 23:54 Clear 68 20 48 8.9 49 49 SSW 7 11 29.85 1011 10 16 0.00 0.00

Powered by AerisWeather